Home   Weather   Cape Town   Past weeks
Flag for South Africa

Past Weather in Cape Town, South Africa — Yesterday and Last 2 Weeks

Now
59 °F

Light rain. Partly cloudy.


Feels Like: 56 °F
Forecast: 62 / 53 °F
Wind: 16 mph from Northwest

Location: Cape Town International Airport

Current Time: May 20, 2019 at 6:54:55 am

Latest Report: May 20, 2019 at 6:26 am


Visibility: 5 mi

Pressure: 29.86 "Hg

Humidity: 94%

Dew Point: 57 °F

Location of Cape TownLocation

Past Weather in Cape Town — Graph

°F

Cape Town Temperature Yesterday

Maximum temperature yesterday: 64 °F (at 1:00 pm)
Minimum temperature yesterday: 48 °F (at 3:14 am)
Average temperature yesterday: 57 °F

High & Low Weather Summary for the Past Weeks

 TemperatureHumidityPressure
High79 °F (May 14, 12:00 pm)100% (May 7, 4:27 am)30.21 "Hg (May 7, 4:27 am)
Low48 °F (May 17, 4:00 am)30% (May 17, 1:00 pm)29.83 "Hg (May 14, 6:00 am)
Average61 °F80%30.00 "Hg
* Reported May 5 5:00 am — May 20 5:24 am, Cape Town. Weather by CustomWeather, © 2019

Note: Actual official high and low records may vary slightly from our data, if they occured in-between our weather recording intervals... More about our weather records

Advertising

Cape Town Weather History for the Previous 24 Hours

Scroll right to see more
 ConditionsComfort  
Time TempWeatherWind HumidityBarometerVisibility
5:24 am
Mon, May 20
59 °FLight rain. Partly cloudy.18 mph94%29.83 "Hg3 mi
4:24 am59 °FOvercast.24 mph94%29.83 "HgN/A
4:00 am57 °FLight rain. Overcast.13 mph100%29.83 "Hg3 mi
3:00 am59 °FLight rain. Mostly cloudy.18 mph94%29.83 "Hg3 mi
2:00 am59 °FLight rain. Mostly cloudy.25 mph94%29.83 "Hg3 mi
1:00 am59 °FLight rain. Mostly cloudy.26 mph94%29.83 "Hg3 mi
12:53 am59 °FLight rain. Mostly cloudy.26 mph94%29.83 "Hg3 mi
12:34 am57 °FLight rain. Mostly cloudy.17 mph94%29.83 "Hg2 mi
12:00 am57 °FRain. Mostly cloudy.17 mph94%29.83 "Hg3 mi
11:00 pm
Sun, May 19
57 °FLight rain. Mostly cloudy.18 mph94%29.86 "Hg3 mi
10:00 pm57 °FLight rain. Partly cloudy.21 mph88%29.86 "Hg4 mi
9:00 pm59 °FLight rain. Partly cloudy.20 mph82%29.86 "Hg5 mi
8:00 pm59 °FPassing clouds.22 mph82%29.86 "HgN/A
7:00 pm61 °FPassing clouds.17 mph77%29.86 "HgN/A
6:00 pm61 °FPassing clouds.17 mph77%29.83 "HgN/A
5:00 pm63 °FPartly sunny.18 mph73%29.86 "HgN/A
4:00 pm63 °FPartly sunny.21 mph73%29.86 "HgN/A
3:03 pm64 °FPartly sunny.23 mph68%29.86 "HgN/A
2:00 pm64 °FPartly sunny.25 mph68%29.86 "HgN/A
1:00 pm64 °FPassing clouds.16 mph68%29.86 "HgN/A
12:00 pm63 °FPassing clouds.15 mph73%29.89 "HgN/A
11:00 am61 °FScattered clouds.14 mph72%29.89 "HgN/A
10:00 am59 °FSunny.10 mph82%29.86 "Hg10 mi
9:59 am59 °FSunny.10 mph82%29.86 "Hg10 mi
9:00 am55 °FSunny.9 mph88%29.86 "Hg10 mi
8:24 am54 °FSunny.7 mph94%29.86 "Hg10 mi
8:00 am50 °FSunny.6 mph94%29.86 "Hg10 mi
7:00 am50 °FClear.5 mph100%29.86 "Hg10 mi
6:00 am52 °FClear.6 mph94%29.83 "Hg10 mi
Weather by CustomWeather, © 2019

See weather overview